Location: ??????
(55.7522°N, 37.6156°E)
Time: 18:18:37
(UTC+00:00)

Cosmos 2292 Rocket - Pass Details

Date: 14 June 2025
Orbit: 370 x 1263 km, 83.0° (Epoch: 13 July)

Event Time Altitude Azimuth Distance (km) Brightness Sun altitude
Exits shadow 20:37:33 12° 200° (SSW) 1,259 4.7 -10.2°
Maximum altitude 20:40:09 66° 282° (WNW) 412 2.8 -10.2°
Drops below altitude 10° 20:43:06 10° 7° (N) 1,407 6.8 -10.3°
Sets 20:45:08 0° 10° (N) 2,309 8.0 -10.4°
